Location: Galliano
(29.4422°N, 90.2993°W)
Time: 09:47:49
(UTC-05:00)

Hubble Space Telescope - Visible Passes

Search period start: 25 May 2018 00:00
Search period end: 04 June 2018 00:00
Orbit: 537 x 541 km, 28.5° (Epoch: 24 May)

Date Brightness Start Highest point End Pass type
(mag) Time Alt. Az. Time Alt. Az. Time Alt. Az.
25 May 2.5 05:08:50 12° SSW 05:11:39 22° SSE 05:14:52 10° ESE visible
26 May 2.1 04:58:59 17° SSW 05:01:16 27° SSE 05:04:46 10° E visible
27 May 1.8 04:49:05 23° SSW 04:50:52 32° SSE 04:54:36 10° E visible
28 May 1.5 04:39:10 30° SSW 04:40:30 39° SSE 04:44:23 10° E visible
29 May 1.2 04:29:14 39° SSW 04:30:08 47° SSE 04:34:07 10° E visible
30 May 0.9 04:19:18 51° SSW 04:19:47 55° SSE 04:23:50 10° E visible
31 May 0.7 04:09:23 62° S 04:09:26 62° S 04:13:32 10° E visible
01 Jun 0.9 03:59:29 64° SE 03:59:29 64° SE 04:03:13 10° E visible
01 Jun 0.8 05:36:09 10° W 05:40:17 75° S 05:44:25 10° E visible
02 Jun 1.2 03:49:38 53° ESE 03:49:38 53° ESE 03:52:55 10° E visible
02 Jun 0.8 05:25:50 10° W 05:29:57 69° S 05:34:04 10° ESE visible
03 Jun 1.8 03:39:52 40° E 03:39:52 40° E 03:42:35 10° E visible
03 Jun 0.8 05:15:32 10° W 05:19:37 62° S 05:23:42 10° ESE visible
